Notices

What's New in latest Release from April 7th, 2021:

- Updated Glossary, including Speed of Maximum Gust, and Total Hourly Precipitation

- Updated national and regional climate services offices contacts and prices information

- Addition of station inventory lists for 1981-2010, 1971-2000, and 1961-1990 Normals.

If you haven't already, please take our survey and provide feedback about our website: https://eccc.sondage-survey.ca/f/LanguageSelection.aspx?s=442ca660-fcf1-47c0-95a9-59707d6fd709

Hourly Data Report for January 09, 2021

STE-ANNE-DE-BELLEVUE 1
QUEBEC
Current Station Operator: ECCC - MSC

45°25'38.000" N
73°55'45.000" W
39.00 m
702FHL8
71377
WVQ

Download Data

Hourly Data (January 2021)
Hourly Data Report for January 9, 2021
TIME
LST
Temp Definition
°C
Dew Point Definition
°C
Rel Hum Definition
%
Precip. Amount Definition
mm

Wind Dir Definition
10's deg

Wind Spd Definition
km/h
Visibility Definition
km
Stn Press Definition
kPa
Hmdx Definition


Wind Chill Definition


Weather Definition


00:00 -9.9 -13.8 74 0.0 26 6   101.15   -13 LegendNANA
01:00 -8.8 -12.8 73 0.0 28 11   101.12   -14 LegendNANA
02:00 -8.2 -12.6 71 0.0 28 14   101.15   -14 LegendNANA
03:00 -8.2 -13.2 67 0.0 29 16   101.16   -15 LegendNANA
04:00 -8.2 -13.9 64 0.0 29 15   101.15   -15 LegendNANA
05:00 -8.5 -14.1 64 0.0 28 12   101.16   -14 LegendNANA
06:00 -9.2 -14.7 64 0.0 25 6   101.21   -13 LegendNANA
07:00 -10.4 -15.3 67 0.0 23 6   101.25   -14 LegendNANA
08:00 -10.5 -15.5 66 0.0 25 9   101.28   -15 LegendNANA
09:00 -8.8 -15.2 59 0.0 24 12   101.33   -14 LegendNANA
10:00 -6.8 -14.2 56 0.0 23 8   101.30   -11 LegendNANA
11:00 -4.7 -13.1 52 0.0 26 8   101.26   -8 LegendNANA
12:00 -3.2 -12.0 50 0.0 26 16   101.18   -9 LegendNANA
13:00 -2.0 -11.3 49 0.0 27 16   101.13   -7 LegendNANA
14:00 -1.0 -10.8 47 0.0 26 14   101.14   -5 LegendNANA
15:00 -0.6 -10.7 46 0.0 28 15   101.17   -5 LegendNANA
16:00 -1.1 -10.2 50 0.0 27 10   101.23   -5 LegendNANA
17:00 -2.6 -10.4 55 0.0 27 9   101.29   -6 LegendNANA
18:00 -3.1 -9.8 60 0.0 27 6   101.36   -6 LegendNANA
19:00 -4.1 -9.5 66 0.0 26 4   101.40   -6 LegendNANA
20:00 -7.0 -10.8 74 0.0 29 2   101.44   -8 LegendNANA
21:00 -6.8 -9.6 80 0.0 30 6   101.48   -10 LegendNANA
22:00 -8.4 -10.0 88 0.0 0 1   101.49   -9 LegendNANA
23:00 -9.5 -10.6 92 0.0 31 4   101.53   -12 LegendNANA

Notes on Data Quality.

Legend

  • E = Estimated
  • M = Missing
  • NA = Not Available*
  • [empty] = Indicates an unobserved value
Date modified: